Simultaneous Nadir Overpasses (SNOs) Predictions

Prediction of SNOs between METOP-A and TERRA Satellite Orbit:

Table of predicted SNOs for the next 14.0 days since TLE Epoch: 3/20/2021
Index Date (METOP-A) Time (METOP-A) Lat,Lon (METOP-A) SZA (METOP-A ) Date (TERRA) Time (TERRA) Lat,Lon (TERRA) SZA (TERRA ) Distance(km) Time Diff (sec)
1 03/20/2021 20:33:33 81.34, -81.43 83.69 03/20/2021 20:33:50 81.33, -81.53 83.68 2.37 17
2 03/20/2021 21:24:13 -81.34, 86.04 96.32 03/20/2021 21:23:17 -81.32, 86.01 96.36 1.97 56
3 03/23/2021 16:07:54 81.33, -14.84 82.62 03/23/2021 16:08:02 81.35, -14.75 82.64 1.94 8
4 03/23/2021 16:58:34 -81.33, 152.65 97.38 03/23/2021 16:57:29 -81.34, 152.80 97.39 2.85 65
5 03/26/2021 10:51:35 -81.34,-116.01 98.47 03/26/2021 10:52:49 -81.34,-116.10 98.45 1.54 74
6 03/26/2021 11:42:15 81.33, 51.73 81.56 03/26/2021 11:42:15 81.34, 51.60 81.55 2.60 0
7 03/26/2021 12:32:56 -81.33,-141.13 98.48 03/26/2021 12:31:43 -81.32,-141.19 98.53 2.03 73
8 03/29/2021 06:25:57 -81.35, -49.81 99.56 03/29/2021 06:27:02 -81.33, -49.75 99.53 1.78 65
9 03/29/2021 07:16:37 81.33, 117.90 80.46 03/29/2021 07:16:28 81.33, 117.93 80.46 0.54 9
10 04/01/2021 02:00:17 -81.34, 16.75 100.61 04/01/2021 02:01:13 -81.35, 16.94 100.56 3.25 56



Historial Predications of SNOs between METOP-A and TERRA
